Torna al catalogo

STARLINK-5400

AttivoComunicazioniVLEO
NORAD 54861·PAYLOAD·🇺🇸 United States

Lanciato Dec 28, 2022 da Cape Canaveral Space Force Station

Loading…

Prossimi Passaggi (prossime 24 ore)

TLE

AggiornatoSource: CelesTrak SupGP

Epoca: Sep 14, 2026, 21:51 UTC

1 54861C 22177AT  26257.91090278 -.00037217  00000+0 -13482-2 0  2579
2 54861  43.0022 132.6549 0001417 270.2535  74.0543 15.27592729    17

Traccia STARLINK-5400 in tempo reale con AllMySat

Download on the App Store